User: anonymous
Location: Fort Frances
(48.6170°N, 93.4170°W)
Time: 19:21:02
(UTC-05:00)
Language:

Iridium 53 - Orbit

View from above orbital plane
View from above orbital plane
View from above satellite
View from above satellite

Ground track
Ground track

The orbit data is extracted from the following two-line orbital elements,

1 25173U 98010E   14273.99939157  .00000326  00000-0  10933-3 0  9726
2 25173 086.3981 044.2311 0002238 112.1540 328.5779 14.34224222869841
Epoch (UTC): 30 September 2014 23:59:07
Eccentricity: 0.0002238
inclination: 86.3981°
perigee height: 776 km
apogee height: 779 km
right ascension of ascending node: 44.2311°
argument of perigee: 112.1540°
revolutions per day: 14.34224222
mean anomaly at epoch: 328.5779°
orbit number at epoch: 86984

The dashed part of the orbit path shows where the satellite is in the earth's shadow,  

DLR